When you browse on this site, cookies collect data to enhance your experience and personalize the content and advertising you see.
Visit our Privacy Policy to learn more. By continuing to use the site, you agree to this use of cookies and data.
  • en Suisse
  • Liste des pays
  • À 7 jours
  • Température de l'eau
  • Carte météo
  • Widgets météo
  • user-avatar
    Se connecter

    Météo par heure à Martos

    Ce jour, 24 Janvier, Vendredi

    Heure Température Précipitation Vent Pression Humidité
    00:00 +6°C° 0 mm 2 m/s 702 mmHg 76%
    01:00 +6°C° 0.2 mm 2 m/s 702 mmHg 79%
    02:00 +7°C° 0.2 mm 1 m/s 702 mmHg 81%
    03:00 +7°C° 0.2 mm 1 m/s 702 mmHg 84%
    04:00 +7°C° 0 mm 1 m/s 702 mmHg 82%
    05:00 +6°C° 0 mm 2 m/s 702 mmHg 80%
    06:00 +6°C° 0 mm 2 m/s 702 mmHg 79%
    07:00 +6°C° 0 mm 2 m/s 702 mmHg 78%
    08:00 +7°C° 0 mm 2 m/s 702 mmHg 77%
    09:00 +7°C° 0 mm 2 m/s 703 mmHg 76%
    10:00 +8°C° 0 mm 2 m/s 703 mmHg 70%
    11:00 +10°C° 0 mm 2 m/s 703 mmHg 64%
    12:00 +12°C° 0 mm 2 m/s 703 mmHg 59%
    13:00 +12°C° 0.1 mm 2 m/s 703 mmHg 59%
    14:00 +13°C° 0.1 mm 2 m/s 702 mmHg 59%
    15:00 +13°C° 0.1 mm 2 m/s 702 mmHg 59%
    16:00 +12°C° 0.2 mm 2 m/s 702 mmHg 66%
    17:00 +11°C° 0.2 mm 1 m/s 702 mmHg 73%
    18:00 +9°C° 0.2 mm 1 m/s 701 mmHg 80%
    19:00 +9°C° 0.1 mm 1 m/s 702 mmHg 81%
    20:00 +9°C° 0.1 mm 1 m/s 702 mmHg 83%
    21:00 +8°C° 0.1 mm 2 m/s 702 mmHg 85%
    22:00 +8°C° 0.4 mm 2 m/s 702 mmHg 85%
    23:00 +8°C° 0.4 mm 2 m/s 702 mmHg 85%

    Demain, 25 Janvier, Samedi

    Heure Température Précipitation Vent Pression Humidité
    00:00 +8°C° 0.4 mm 3 m/s 702 mmHg 85%
    01:00 +7°C° 0.1 mm 2 m/s 701 mmHg 85%
    02:00 +7°C° 0.1 mm 2 m/s 701 mmHg 84%
    03:00 +7°C° 0.1 mm 2 m/s 700 mmHg 84%
    04:00 +7°C° 0.5 mm 2 m/s 700 mmHg 85%
    05:00 +7°C° 0.5 mm 2 m/s 700 mmHg 87%
    06:00 +7°C° 0.5 mm 2 m/s 700 mmHg 88%
    07:00 +7°C° 1.3 mm 2 m/s 701 mmHg 89%
    08:00 +7°C° 1.3 mm 2 m/s 701 mmHg 90%
    09:00 +7°C° 1.3 mm 2 m/s 701 mmHg 91%
    10:00 +7°C° 1.1 mm 2 m/s 701 mmHg 90%
    11:00 +7°C° 1.1 mm 2 m/s 701 mmHg 89%
    12:00 +7°C° 1.1 mm 2 m/s 701 mmHg 88%
    13:00 +7°C° 1.4 mm 2 m/s 701 mmHg 88%
    14:00 +7°C° 1.4 mm 2 m/s 700 mmHg 88%
    15:00 +7°C° 1.4 mm 2 m/s 700 mmHg 88%
    16:00 +6°C° 0.6 mm 2 m/s 700 mmHg 88%
    17:00 +6°C° 0.6 mm 2 m/s 701 mmHg 88%
    18:00 +7°C° 0.6 mm 1 m/s 701 mmHg 88%
    19:00 +7°C° 0 mm 1 m/s 701 mmHg 88%
    20:00 +7°C° 0 mm 1 m/s 702 mmHg 88%
    21:00 +6°C° 0 mm 1 m/s 702 mmHg 88%
    22:00 +6°C° 0 mm 1 m/s 702 mmHg 88%
    23:00 +6°C° 0 mm 1 m/s 702 mmHg 88%

    Après-demain, 26 Janvier, Dimanche

    Heure Température Précipitation Vent Pression Humidité
    00:00 +6°C° 0 mm 1 m/s 702 mmHg 88%
    01:00 +5°C° 0 mm 0 m/s 702 mmHg 88%
    02:00 +5°C° 0 mm 0 m/s 702 mmHg 87%
    03:00 +5°C° 0 mm 0 m/s 703 mmHg 86%
    04:00 +6°C° 0 mm 0 m/s 703 mmHg 86%
    05:00 +6°C° 0 mm 0 m/s 703 mmHg 86%
    06:00 +6°C° 0 mm 0 m/s 703 mmHg 86%
    07:00 +6°C° 0 mm 0 m/s 704 mmHg 85%
    08:00 +7°C° 0 mm 0 m/s 704 mmHg 84%
    09:00 +8°C° 0 mm 1 m/s 705 mmHg 83%
    10:00 +9°C° 0 mm 1 m/s 705 mmHg 79%
    11:00 +9°C° 0 mm 2 m/s 705 mmHg 74%
    12:00 +10°C° 0 mm 2 m/s 705 mmHg 70%
    13:00 +10°C° 0 mm 2 m/s 705 mmHg 69%
    14:00 +10°C° 0 mm 3 m/s 705 mmHg 67%
    15:00 +10°C° 0 mm 3 m/s 705 mmHg 66%
    16:00 +9°C° 0 mm 2 m/s 705 mmHg 72%
    17:00 +8°C° 0 mm 2 m/s 705 mmHg 78%
    18:00 +7°C° 0 mm 1 m/s 705 mmHg 84%
    19:00 +7°C° 0 mm 1 m/s 705 mmHg 86%
    20:00 +6°C° 0 mm 1 m/s 705 mmHg 87%
    21:00 +5°C° 0 mm 0 m/s 706 mmHg 89%
    22:00 +4°C° 0 mm 0 m/s 706 mmHg 89%
    23:00 +4°C° 0 mm 0 m/s 706 mmHg 89%

    27 Janvier, Lundi

    Heure Température Précipitation Vent Pression Humidité
    00:00 +4°C° 0 mm 0 m/s 706 mmHg 89%
    01:00 +3°C° 0 mm 0 m/s 705 mmHg 89%
    02:00 +3°C° 0 mm 0 m/s 705 mmHg 89%
    03:00 +3°C° 0 mm 0 m/s 705 mmHg 89%
    04:00 +3°C° 0 mm 0 m/s 705 mmHg 89%
    05:00 +3°C° 0 mm 0 m/s 705 mmHg 89%
    06:00 +2°C° 0 mm 0 m/s 705 mmHg 89%
    07:00 +4°C° 0 mm 0 m/s 705 mmHg 85%
    08:00 +5°C° 0 mm 0 m/s 705 mmHg 80%
    09:00 +6°C° 0 mm 0 m/s 706 mmHg 76%
    10:00 +8°C° 0 mm 1 m/s 706 mmHg 71%
    11:00 +10°C° 0 mm 1 m/s 706 mmHg 66%
    12:00 +11°C° 0 mm 1 m/s 706 mmHg 60%
    13:00 +12°C° 0 mm 1 m/s 706 mmHg 58%
    14:00 +12°C° 0 mm 2 m/s 705 mmHg 56%
    15:00 +13°C° 0 mm 2 m/s 705 mmHg 54%
    16:00 +10°C° 0 mm 2 m/s 704 mmHg 63%
    17:00 +9°C° 0 mm 2 m/s 704 mmHg 71%
    18:00 +8°C° 0 mm 1 m/s 704 mmHg 80%
    19:00 +7°C° 0 mm 1 m/s 704 mmHg 82%
    20:00 +7°C° 0 mm 1 m/s 704 mmHg 84%
    21:00 +6°C° 0 mm 1 m/s 705 mmHg 87%
    22:00 +6°C° 0 mm 1 m/s 705 mmHg 87%
    23:00 +5°C° 0 mm 0 m/s 705 mmHg 87%

    28 Janvier, Mardi

    Heure Température Précipitation Vent Pression Humidité
    00:00 +5°C° 0 mm 0 m/s 705 mmHg 87%
    01:00 +5°C° 0 mm 0 m/s 704 mmHg 87%
    02:00 +4°C° 0 mm 0 m/s 704 mmHg 87%
    03:00 +4°C° 0 mm 0 m/s 704 mmHg 88%
    04:00 +4°C° 0 mm 0 m/s 704 mmHg 88%
    05:00 +4°C° 0 mm 0 m/s 704 mmHg 88%
    06:00 +3°C° 0 mm 0 m/s 703 mmHg 88%
    07:00 +5°C° 0 mm 0 m/s 704 mmHg 85%
    08:00 +6°C° 0 mm 0 m/s 704 mmHg 81%
    09:00 +7°C° 0 mm 0 m/s 705 mmHg 77%
    10:00 +8°C° 0 mm 0 m/s 705 mmHg 74%
    11:00 +10°C° 0 mm 1 m/s 705 mmHg 70%
    12:00 +12°C° 0 mm 1 m/s 705 mmHg 66%
    13:00 +12°C° 0 mm 1 m/s 705 mmHg 66%
    14:00 +12°C° 0 mm 2 m/s 704 mmHg 66%
    15:00 +12°C° 0 mm 2 m/s 704 mmHg 66%
    16:00 +10°C° 0 mm 2 m/s 704 mmHg 74%
    17:00 +10°C° 0 mm 1 m/s 704 mmHg 81%
    18:00 +9°C° 0 mm 1 m/s 704 mmHg 88%
    19:00 +8°C° 0 mm 1 m/s 704 mmHg 89%
    20:00 +7°C° 0 mm 0 m/s 704 mmHg 90%
    21:00 +6°C° 0 mm 0 m/s 705 mmHg 91%
    22:00 +6°C° 0 mm 0 m/s 704 mmHg 91%
    23:00 +5°C° 0 mm 0 m/s 704 mmHg 92%

    29 Janvier, Mercredi

    Heure Température Précipitation Vent Pression Humidité
    00:00 +5°C° 0 mm 0 m/s 704 mmHg 92%
    01:00 +5°C° 0 mm 0 m/s 704 mmHg 92%
    02:00 +5°C° 0 mm 0 m/s 704 mmHg 92%
    03:00 +4°C° 0 mm 0 m/s 704 mmHg 93%
    04:00 +4°C° 0 mm 0 m/s 704 mmHg 92%
    05:00 +4°C° 0 mm 0 m/s 703 mmHg 91%
    06:00 +4°C° 0 mm 0 m/s 703 mmHg 90%
    07:00 +6°C° 0 mm 1 m/s 704 mmHg 86%
    08:00 +8°C° 0 mm 1 m/s 704 mmHg 81%
    09:00 +9°C° 0 mm 1 m/s 705 mmHg 77%
    10:00 +10°C° 0 mm 1 m/s 705 mmHg 72%
    11:00 +12°C° 0 mm 1 m/s 705 mmHg 67%
    12:00 +13°C° 0 mm 1 m/s 705 mmHg 62%
    13:00 +13°C° 0 mm 1 m/s 704 mmHg 62%
    14:00 +13°C° 0 mm 1 m/s 704 mmHg 62%
    15:00 +14°C° 0 mm 1 m/s 704 mmHg 62%
    16:00 +13°C° 0 mm 1 m/s 704 mmHg 68%
    17:00 +12°C° 0 mm 1 m/s 704 mmHg 73%
    18:00 +11°C° 0 mm 1 m/s 704 mmHg 79%
    19:00 +11°C° 0 mm 1 m/s 704 mmHg 79%
    20:00 +11°C° 0 mm 1 m/s 704 mmHg 80%
    21:00 +11°C° 0 mm 1 m/s 705 mmHg 81%
    22:00 +10°C° 0 mm 0 m/s 705 mmHg 82%
    23:00 +9°C° 0 mm 0 m/s 705 mmHg 82%
    Voir plus